Starlink 31895

operational
NORAD ID: 59849 Int'l Des: 2024-097 Owner: SPXS Country: US Constellation: starlink
LEOCIRCULAR

About Starlink 31895

Description loading...

Live Position

Loading 3D Globe...

Upcoming Passes

Altitude History

Altitude vs Time

uPlot chart will show altitude changes over time

Two-Line Element Set

1 59849U 24097Q 25352.12309905 -.00003434 00000-0 -11532-3 0 9994
2 59849 43.0049 14.8875 0000688 263.4574 96.6199 15.27587554 89447
Epoch: Dec 18, 2025 • Age: 22 hours

Current Status

Altitude 494.6 km
Velocity 7.62 km/s
Sub-Earth Point -39.82°S, 150.15°W
Launch Date May 23, 2024
Age 1.5 years
Type internet

Technical Details

Classification Payload
Mass 730.00 kg
Dry Mass 700.00 kg
Total Mass 730.00 kg
Length 0.30 m
Diameter 4.10 m
Span 29.00 m
Shape Box + pan
Manufacturer SPXS
Bus Type Starlink V2M
Phase Status In Orbit
Owner/State SPXS/US

Large Constellations

Loading constellations...